TimeCST,TemperatureF,Dew PointF,Humidity,Sea Level PressureIn,VisibilityMPH,Wind Direction,Wind SpeedMPH,Gust SpeedMPH,PrecipitationIn,Events,Conditions,WindDirDegrees,DateUTC
12:13 AM,-4.0,-11.2,71,29.91,10.0,SE,11.5,-,N/A,,Clear,130,2014-02-28 06:13:00
12:34 AM,-4.0,-11.2,71,29.90,10.0,SE,11.5,-,N/A,,Clear,130,2014-02-28 06:34:00
12:54 AM,-4.0,-11.2,71,29.90,10.0,SE,10.4,-,N/A,,Clear,130,2014-02-28 06:54:00
1:13 AM,-4.0,-11.2,71,29.90,10.0,SE,10.4,-,N/A,,Clear,130,2014-02-28 07:13:00
1:34 AM,-4.0,-11.2,71,29.89,10.0,SE,10.4,-,N/A,,Clear,140,2014-02-28 07:34:00
1:53 AM,-4.0,-11.2,71,29.89,10.0,SE,9.2,-,N/A,,Clear,130,2014-02-28 07:53:00
2:13 AM,-4.0,-11.2,71,29.87,10.0,SE,11.5,-,N/A,,Clear,130,2014-02-28 08:13:00
2:33 AM,-4.0,-11.2,71,29.86,10.0,SE,10.4,-,N/A,,Clear,140,2014-02-28 08:33:00
2:53 AM,-4.0,-11.2,71,29.85,10.0,SE,11.5,-,N/A,,Clear,140,2014-02-28 08:53:00
3:13 AM,-5.8,-11.2,77,29.85,10.0,SE,9.2,-,N/A,,Clear,140,2014-02-28 09:13:00
3:33 AM,-4.0,-11.2,71,29.83,10.0,SE,11.5,-,N/A,,Clear,140,2014-02-28 09:33:00
3:53 AM,-4.0,-11.2,71,29.82,10.0,SE,11.5,-,N/A,,Clear,130,2014-02-28 09:53:00
4:14 AM,-4.0,-11.2,71,29.80,10.0,SE,12.7,17.3,N/A,,Clear,130,2014-02-28 10:14:00
4:33 AM,-2.2,-11.2,66,29.81,10.0,SE,10.4,-,N/A,,Mostly Cloudy,130,2014-02-28 10:33:00
4:54 AM,-2.2,-11.2,66,29.79,10.0,SE,12.7,-,N/A,,Overcast,140,2014-02-28 10:54:00
5:14 AM,-0.4,-9.4,66,29.81,10.0,SE,10.4,-,N/A,,Overcast,140,2014-02-28 11:14:00
5:34 AM,-0.4,-9.4,66,29.79,10.0,SE,11.5,17.3,N/A,,Overcast,130,2014-02-28 11:34:00
5:53 AM,-0.4,-7.6,72,29.79,10.0,SE,11.5,-,N/A,,Overcast,130,2014-02-28 11:53:00
6:13 AM,-0.4,-7.6,72,29.79,10.0,SE,9.2,16.1,N/A,,Scattered Clouds,140,2014-02-28 12:13:00
6:33 AM,-0.4,-7.6,72,29.80,10.0,SE,9.2,-,N/A,,Mostly Cloudy,140,2014-02-28 12:33:00
6:54 AM,-0.4,-7.6,72,29.80,10.0,SE,8.1,-,N/A,,Scattered Clouds,140,2014-02-28 12:54:00
7:13 AM,1.4,-7.6,66,29.80,10.0,SE,9.2,-,N/A,,Mostly Cloudy,140,2014-02-28 13:13:00
7:34 AM,1.4,-7.6,66,29.81,10.0,SE,8.1,-,N/A,,Mostly Cloudy,140,2014-02-28 13:34:00
7:53 AM,1.4,-5.8,72,29.81,10.0,SE,8.1,-,N/A,,Mostly Cloudy,130,2014-02-28 13:53:00
8:14 AM,3.2,-5.8,66,29.82,10.0,SE,10.4,-,N/A,,Scattered Clouds,140,2014-02-28 14:14:00
8:34 AM,3.2,-5.8,66,29.81,10.0,SE,8.1,-,N/A,,Clear,130,2014-02-28 14:34:00
8:54 AM,5.0,-4.0,66,29.81,10.0,SE,6.9,-,N/A,,Clear,140,2014-02-28 14:54:00
9:13 AM,6.8,-2.2,67,29.81,10.0,SE,9.2,-,N/A,,Clear,140,2014-02-28 15:13:00
9:33 AM,6.8,-2.2,67,29.81,10.0,SSE,8.1,-,N/A,,Clear,150,2014-02-28 15:33:00
9:54 AM,8.6,-0.4,67,29.81,10.0,South,9.2,-,N/A,,Clear,170,2014-02-28 15:54:00
10:14 AM,10.4,-0.4,62,29.82,10.0,SSE,9.2,-,N/A,,Scattered Clouds,160,2014-02-28 16:14:00
10:33 AM,10.4,1.4,67,29.82,10.0,SSE,6.9,-,N/A,,Clear,160,2014-02-28 16:33:00
10:54 AM,12.2,1.4,62,29.82,10.0,South,6.9,-,N/A,,Clear,170,2014-02-28 16:54:00
11:14 AM,14.0,3.2,62,29.83,10.0,South,4.6,-,N/A,,Scattered Clouds,190,2014-02-28 17:14:00
11:34 AM,15.8,3.2,58,29.84,10.0,SSW,5.8,-,N/A,,Overcast,200,2014-02-28 17:34:00
11:53 AM,17.6,6.8,63,29.84,10.0,South,4.6,-,N/A,,Mostly Cloudy,190,2014-02-28 17:53:00
12:13 PM,19.4,6.8,58,29.84,10.0,SW,3.5,-,N/A,,Scattered Clouds,230,2014-02-28 18:13:00
12:34 PM,19.4,8.6,63,29.85,10.0,NW,9.2,-,N/A,,Clear,310,2014-02-28 18:34:00
12:54 PM,21.2,8.6,58,29.85,10.0,NW,13.8,-,N/A,,Clear,310,2014-02-28 18:54:00
1:14 PM,21.2,8.6,58,29.86,10.0,NW,11.5,-,N/A,,Scattered Clouds,320,2014-02-28 19:14:00
1:33 PM,21.2,10.4,63,29.87,10.0,NW,16.1,-,N/A,,Mostly Cloudy,320,2014-02-28 19:33:00
1:54 PM,19.4,10.4,68,29.88,10.0,NNW,18.4,-,N/A,,Overcast,330,2014-02-28 19:54:00
2:14 PM,19.4,10.4,68,29.88,10.0,NNW,19.6,-,N/A,,Overcast,330,2014-02-28 20:14:00
2:34 PM,19.4,12.2,74,29.89,10.0,NNW,17.3,25.3,N/A,,Overcast,330,2014-02-28 20:34:00
2:54 PM,19.4,10.4,68,29.91,10.0,NW,20.7,25.3,N/A,,Overcast,320,2014-02-28 20:54:00
3:14 PM,19.4,10.4,68,29.92,10.0,NNW,20.7,24.2,N/A,,Mostly Cloudy,330,2014-02-28 21:14:00
3:34 PM,19.4,10.4,68,29.93,10.0,NNW,20.7,26.5,N/A,,Overcast,330,2014-02-28 21:34:00
3:53 PM,17.6,8.6,68,29.96,7.0,NW,23.0,28.8,N/A,,Mostly Cloudy,320,2014-02-28 21:53:00
4:13 PM,17.6,10.4,73,29.98,7.0,NNW,21.9,25.3,N/A,,Mostly Cloudy,340,2014-02-28 22:13:00
4:33 PM,15.8,6.8,68,29.99,10.0,NNW,24.2,29.9,N/A,,Mostly Cloudy,330,2014-02-28 22:33:00
4:54 PM,15.8,8.6,73,30.01,7.0,NNW,25.3,32.2,N/A,,Mostly Cloudy,330,2014-02-28 22:54:00
5:14 PM,15.8,6.8,68,30.02,4.0,NNW,21.9,-,N/A,,Haze,330,2014-02-28 23:14:00
5:34 PM,12.2,5.0,73,30.03,10.0,NNW,24.2,-,N/A,,Mostly Cloudy,340,2014-02-28 23:34:00
5:54 PM,12.2,3.2,67,30.06,10.0,NNW,25.3,-,N/A,,Scattered Clouds,340,2014-02-28 23:54:00
6:14 PM,10.4,1.4,67,30.08,10.0,NNW,21.9,31.1,N/A,,Scattered Clouds,340,2014-03-01 00:14:00
6:34 PM,8.6,1.4,73,30.10,10.0,NNW,18.4,24.2,N/A,,Clear,340,2014-03-01 00:34:00
6:54 PM,8.6,-0.4,67,30.10,10.0,North,21.9,27.6,N/A,,Scattered Clouds,350,2014-03-01 00:54:00
7:14 PM,8.6,-0.4,67,30.11,10.0,North,18.4,-,N/A,,Overcast,350,2014-03-01 01:14:00
7:34 PM,6.8,-2.2,67,30.12,10.0,North,27.6,-,N/A,,Mostly Cloudy,350,2014-03-01 01:34:00
7:53 PM,5.0,-4.0,66,30.13,10.0,North,21.9,31.1,N/A,,Scattered Clouds,350,2014-03-01 01:53:00
8:13 PM,3.2,-5.8,66,30.14,10.0,North,20.7,31.1,N/A,,Scattered Clouds,350,2014-03-01 02:13:00
8:34 PM,3.2,-5.8,66,30.15,10.0,North,25.3,32.2,N/A,,Scattered Clouds,350,2014-03-01 02:34:00
8:54 PM,3.2,-5.8,66,30.18,10.0,NNW,25.3,33.4,N/A,,Overcast,340,2014-03-01 02:54:00
9:13 PM,1.4,-5.8,72,30.19,10.0,NNW,24.2,32.2,N/A,,Mostly Cloudy,340,2014-03-01 03:13:00
9:34 PM,1.4,-7.6,66,30.21,10.0,NNW,25.3,33.4,N/A,,Scattered Clouds,340,2014-03-01 03:34:00
9:54 PM,1.4,-7.6,66,30.23,10.0,NNW,24.2,32.2,N/A,,Clear,340,2014-03-01 03:54:00
10:13 PM,1.4,-7.6,66,30.25,10.0,NNW,24.2,-,N/A,,Clear,340,2014-03-01 04:13:00
10:34 PM,1.4,-7.6,66,30.25,10.0,NNW,24.2,32.2,N/A,,Clear,340,2014-03-01 04:34:00
10:53 PM,-0.4,-7.6,72,30.26,10.0,NNW,26.5,31.1,N/A,,Clear,340,2014-03-01 04:53:00
11:13 PM,-0.4,-7.6,72,30.27,10.0,NNW,28.8,32.2,N/A,,Clear,340,2014-03-01 05:13:00
11:34 PM,-0.4,-9.4,66,30.27,10.0,North,24.2,-,N/A,,Clear,350,2014-03-01 05:34:00
11:54 PM,-0.4,-9.4,66,30.28,10.0,NNW,19.6,-,N/A,,Clear,340,2014-03-01 05:54:00